TimeEDT,TemperatureF,Dew PointF,Humidity,Sea Level PressureIn,VisibilityMPH,Wind Direction,Wind SpeedMPH,Gust SpeedMPH,PrecipitationIn,Events,Conditions,WindDirDegrees,DateUTC
12:53 AM,52.0,52.0,100,29.97,9.0,Calm,Calm,-,N/A,,Clear,0,2013-04-30 04:53:00
1:53 AM,50.0,50.0,100,29.96,6.0,Calm,Calm,-,N/A,,Clear,0,2013-04-30 05:53:00
2:53 AM,50.0,50.0,100,29.95,6.0,Calm,Calm,-,N/A,,Clear,0,2013-04-30 06:53:00
3:53 AM,48.9,48.9,100,29.96,6.0,Calm,Calm,-,N/A,,Clear,0,2013-04-30 07:53:00
4:53 AM,48.9,48.9,100,29.97,5.0,Calm,Calm,-,N/A,,Clear,0,2013-04-30 08:53:00
5:13 AM,48.2,48.2,100,30.00,5.0,Calm,Calm,-,N/A,,Partly Cloudy,0,2013-04-30 09:13:00
5:33 AM,48.2,48.2,100,30.00,5.0,Calm,Calm,-,N/A,,Mostly Cloudy,0,2013-04-30 09:33:00
5:53 AM,50.0,48.9,96,29.98,7.0,Calm,Calm,-,N/A,,Overcast,0,2013-04-30 09:53:00
6:06 AM,51.8,51.8,100,30.00,8.0,Calm,Calm,-,N/A,,Overcast,0,2013-04-30 10:06:00
6:19 AM,51.8,51.8,100,30.01,1.8,Calm,Calm,-,N/A,,Overcast,0,2013-04-30 10:19:00
6:28 AM,53.6,53.6,100,30.02,0.5,Calm,Calm,-,N/A,Fog,Fog,0,2013-04-30 10:28:00
6:36 AM,53.6,53.6,100,30.02,0.2,Calm,Calm,-,N/A,Fog,Fog,0,2013-04-30 10:36:00
6:53 AM,54.0,54.0,100,30.00,0.2,Calm,Calm,-,N/A,Fog,Fog,0,2013-04-30 10:53:00
7:31 AM,55.4,55.4,100,30.04,1.0,Calm,Calm,-,N/A,,Mist,0,2013-04-30 11:31:00
7:39 AM,55.4,55.4,100,30.04,3.0,Calm,Calm,-,N/A,,Overcast,0,2013-04-30 11:39:00
7:53 AM,55.9,55.9,100,30.02,3.0,Calm,Calm,-,N/A,,Overcast,0,2013-04-30 11:53:00
8:06 AM,55.4,55.4,100,30.05,2.0,Calm,Calm,-,N/A,,Overcast,0,2013-04-30 12:06:00
8:13 AM,55.4,55.4,100,30.05,1.2,Calm,Calm,-,N/A,,Overcast,0,2013-04-30 12:13:00
8:33 AM,57.2,57.2,100,30.05,0.8,Calm,Calm,-,N/A,,Overcast,0,2013-04-30 12:33:00
8:53 AM,57.9,57.9,100,30.04,0.8,Calm,Calm,-,N/A,,Overcast,0,2013-04-30 12:53:00
9:13 AM,59.0,59.0,100,30.06,1.0,NNE,3.5,-,0.01,,Overcast,30,2013-04-30 13:13:00
9:46 AM,60.8,60.8,100,30.07,2.0,ENE,3.5,-,0.01,,Overcast,70,2013-04-30 13:46:00
9:53 AM,60.1,60.1,100,30.05,2.5,ENE,3.5,-,0.01,,Overcast,70,2013-04-30 13:53:00
10:00 AM,60.8,60.8,100,30.07,3.0,ENE,3.5,-,N/A,,Overcast,70,2013-04-30 14:00:00
10:21 AM,62.6,60.8,94,30.07,5.0,East,4.6,-,N/A,,Overcast,100,2013-04-30 14:21:00
10:51 AM,64.4,60.8,88,30.07,8.0,East,4.6,-,N/A,,Overcast,100,2013-04-30 14:51:00
10:53 AM,64.0,61.0,90,30.05,8.0,ESE,5.8,-,N/A,,Overcast,120,2013-04-30 14:53:00
11:46 AM,68.0,60.8,78,30.07,9.0,East,4.6,-,N/A,,Scattered Clouds,90,2013-04-30 15:46:00
11:53 AM,70.0,62.1,76,30.05,9.0,Variable,5.8,-,N/A,,Partly Cloudy,0,2013-04-30 15:53:00
12:53 PM,73.0,61.0,66,30.02,10.0,NE,6.9,-,N/A,,Partly Cloudy,50,2013-04-30 16:53:00
1:53 PM,75.0,55.9,51,30.01,10.0,Variable,4.6,-,N/A,,Scattered Clouds,0,2013-04-30 17:53:00
2:53 PM,77.0,54.0,45,30.00,10.0,East,3.5,-,N/A,,Scattered Clouds,100,2013-04-30 18:53:00
3:53 PM,77.0,57.9,52,30.00,10.0,East,5.8,-,N/A,,Mostly Cloudy,80,2013-04-30 19:53:00
4:53 PM,77.0,55.9,48,29.98,10.0,Variable,3.5,-,N/A,,Partly Cloudy,0,2013-04-30 20:53:00
5:53 PM,78.1,57.0,48,29.98,10.0,Variable,3.5,-,N/A,,Clear,0,2013-04-30 21:53:00
6:53 PM,77.0,57.0,50,29.98,10.0,East,3.5,-,N/A,,Clear,90,2013-04-30 22:53:00
7:53 PM,73.0,57.9,59,29.99,10.0,Calm,Calm,-,N/A,,Mostly Cloudy,0,2013-04-30 23:53:00
9:53 PM,66.9,57.9,73,30.03,10.0,SE,4.6,-,N/A,,Clear,140,2013-05-01 01:53:00
10:53 PM,64.0,57.9,80,30.05,10.0,SE,3.5,-,N/A,,Clear,130,2013-05-01 02:53:00